User: anonymous   Login
Location: Unspecified
(0.0000°N, 0.0000°E)
Time: 01:01:22
(UTC+00:00)
Language:

SHIJIAN 28 - Orbit

View from above orbital plane
View from above orbital plane
View from above satellite
View from above satellite

Ground track
Ground track

The orbit is defined by the following mean orbital elements,

1 66549U          26145.39297729 +.00000000 +00000-0 +00000-0 0 00009
2 66549   4.5955 272.4958 0000849  28.2510 200.5604  1.00276032    04
Epoch (UTC): 25 May 2026 09:25:53
Eccentricity: 0.0000849
inclination: 4.5955°
perigee height: 35782 km
apogee height: 35789 km
right ascension of ascending node: 272.4958°
argument of perigee: 28.2510°
revolutions per day: 1.00276032
mean anomaly at epoch: 200.5604°

The dashed part of the orbit path shows where the satellite is in the earth's shadow,  

DLR